[ ตารางข้อมูล ] [ Min-Max ] [ วันนี้4 ] [ วันนี้2 ] [ เทียบ3วัน A ] [ เทียบ4วัน B ]   

วันนี้2   [ ◀ ช่วงเก่ากว่า ] [ ช่วงที่ 259 ] [ ช่วงใหม่กว่า ▶ ] [ ล่าสุด ]    [ 3 ชั่วโมง ] [ 6 ชั่วโมง ] [ 12 ชั่วโมง ] [ 24 ชั่วโมง ]   วันนี้2

อุณภูมิตู้ Knockdown4529  ราย 3 ชั่วโมง  ที่วัดได้ ในช่วงวันเวลา 04/04/2026 (21:35) ถึง 05/04/2026 (00:35) 
ความชื้นในตู้ Knockdown4529  ราย 3 ชั่วโมง  ที่วัดได้ ในช่วงวันเวลา 04/04/2026 (21:35) ถึง 05/04/2026 (00:35) 

 
DS18B20SHTC3 
IDDate d/m/Y & Timedata1
สูง
data2
ต่ำ
data3
นอก
temp
pcb
hum
pcb
Time
 8876  05/04/2026 00:30:54  28.2  28.3  26.5  28.1  69.9  00:30 
 8875  05/04/2026 00:26:12  28.2  28.4  26.5  28.2  70.0  00:26 
 8874  05/04/2026 00:21:30  28.3  28.4  26.5  28.1  69.9  00:21 
 8873  05/04/2026 00:16:48  28.3  28.4  26.5  28.2  70.0  00:16 
 8872  05/04/2026 00:12:07  28.3  28.4  26.5  28.2  70.0  00:12 
 8871  05/04/2026 00:07:25  28.3  28.4  26.6  28.2  69.9  00:07 
 8870  05/04/2026 00:02:41  28.4  28.5  26.7  28.4  69.8  00:02 
 8869  04/04/2026 23:57:59  28.4  28.5  26.4  28.4  69.8  23:57 
 8868  04/04/2026 23:53:16  28.4  28.6  26.5  28.5  69.9  23:53 
 8867  04/04/2026 23:48:32  28.4  28.6  26.3  28.4  69.8  23:48 
 8866  04/04/2026 23:43:49  28.4  28.6  26.2  28.4  69.8  23:43 
 8865  04/04/2026 23:39:07  28.4  28.6  26.2  28.4  69.8  23:39 
 8864  04/04/2026 23:34:26  28.5  28.7  26.2  28.4  69.6  23:34 
 8863  04/04/2026 23:29:44  28.5  28.7  26.3  28.4  69.7  23:29 
 8862  04/04/2026 23:25:01  28.6  28.7  26.5  28.6  69.7  23:25 
 8861  04/04/2026 23:20:19  28.6  28.7  26.7  28.6  69.7  23:20 
 8860  04/04/2026 23:15:35  28.6  28.8  26.9  28.5  69.5  23:15 
 8859  04/04/2026 23:10:53  28.6  28.8  26.9  28.6  69.6  23:10 
 8858  04/04/2026 23:06:11  28.6  28.8  27.1  28.6  69.5  23:06 
 8857  04/04/2026 23:01:29  28.6  28.8  27.0  28.6  69.6  23:01 
 8856  04/04/2026 22:56:47  28.7  28.8  27.1  28.6  69.4  22:56 
 8855  04/04/2026 22:52:05  28.7  28.8  27.1  28.7  69.5  22:52 
 8854  04/04/2026 22:47:24  28.7  28.9  27.0  28.6  69.4  22:47 
 8853  04/04/2026 22:42:42  28.8  28.9  27.0  28.6  69.5  22:42 

Data every 5 minute.


ใช้เวลาประมวลผล 0.00308 วินาที